Weather History for Ohio State University, OH

Change the Weather History Date:

Tuesday, May 28, 2013

  Actual Average Record
Temperature  
Mean Temperature 74 °F -  
Max Temperature 86 °F 71 °F 93 °F (2012)
Min Temperature 64 °F 51 °F 37 °F (2008)
Cooling Degree Days 9    
Growing Degree Days 24 (Base 50)    
Moisture  
Dew Point 59 °F    
Average Humidity 61    
Maximum Humidity 90    
Minimum Humidity 40    
Precipitation  
Precipitation 0.00 in - - ()
Sea Level Pressure  
Sea Level Pressure 29.98 in    
Wind  
Wind Speed 9 mph (SSW)    
Max Wind Speed 20 mph    
Max Gust Speed 31 mph    
Visibility 10 miles    
Events Rain    
Averages and records for this station are not official NWS values.
T = Trace of Precipitation, MM = Missing Value Source: NWS Daily Summary

Daily Weather History Graph

Daily Weather History Graph

Search for Another Location

Airport:

Trip Planner

Search our weather history database for the weather conditions in past years. The results will help you decide how hot, cold, wet, or windy it might be!

Date:

Astronomy

May. 28, 2013 Rise Set
Actual Time 6:07 AM EDT 8:52 PM EDT
Civil Twilight 5:35 AM EDT 9:24 PM EDT
Nautical Twilight 4:55 AM EDT 10:04 PM EDT
Astronomical Twilight 4:09 AM EDT 10:50 PM EDT
Moon No Moon Rise 9:54 AM EDT (5/28)
Length of Visible Light 15h 49m
Length of Day
14h 45m
Waning Gibbous, 83% of the Moon is Illuminated
May 28
Waning Gibbous
May 31
Last Quarter
Jun 8
New
Jun 16
First Quarter
Jun 23
Full

Hourly Weather History & Observations

Time (EDT) Temp. Heat Index Dew Point Humidity Pressure Visibility Wind Dir Wind Speed Gust Speed Precip Events Conditions
12:53 AM 64.0 °F - 53.1 °F 67% 30.00 in 10.0 mi SE 6.9 mph - 0.00 in Rain Light Rain
1:53 AM 64.0 °F - 55.0 °F 73% 29.95 in 10.0 mi SSE 11.5 mph - 0.00 in   Overcast
2:53 AM 64.9 °F - 55.9 °F 73% 29.96 in 10.0 mi SSE 6.9 mph - 0.00 in   Partly Cloudy
3:53 AM 64.0 °F - 57.0 °F 78% 29.97 in 10.0 mi SSW 4.6 mph - N/A   Clear
4:53 AM 66.0 °F - 57.0 °F 73% 29.98 in 10.0 mi South 4.6 mph - N/A   Overcast
5:53 AM 66.0 °F - 57.9 °F 75% 29.99 in 10.0 mi South 3.5 mph - N/A   Overcast
6:53 AM 66.0 °F - 59.0 °F 78% 30.00 in 10.0 mi South 4.6 mph - N/A   Overcast
7:53 AM 64.9 °F - 62.1 °F 90% 30.03 in 10.0 mi Calm Calm - N/A Rain Light Rain
8:53 AM 68.0 °F - 62.1 °F 81% 30.02 in 10.0 mi SE 4.6 mph - 0.00 in   Mostly Cloudy
9:53 AM 75.9 °F - 63.0 °F 64% 30.02 in 10.0 mi SW 10.4 mph - N/A   Mostly Cloudy
10:53 AM 79.0 °F - 63.0 °F 58% 30.01 in 10.0 mi SW 19.6 mph 28.8 mph N/A   Partly Cloudy
11:53 AM 80.1 °F 81.1 °F 61.0 °F 52% 30.00 in 10.0 mi SW 12.7 mph - N/A   Scattered Clouds
12:53 PM 81.0 °F 82.5 °F 64.0 °F 56% 29.99 in 10.0 mi SSW 15.0 mph 20.7 mph N/A   Mostly Cloudy
1:53 PM 82.9 °F 84.0 °F 63.0 °F 51% 29.97 in 10.0 mi SW 19.6 mph 27.6 mph N/A   Scattered Clouds
2:53 PM 84.0 °F 84.5 °F 62.1 °F 47% 29.96 in 10.0 mi SW 17.3 mph 26.5 mph N/A   Mostly Cloudy
3:53 PM 82.9 °F 83.3 °F 61.0 °F 47% 29.94 in 10.0 mi SW 12.7 mph 27.6 mph N/A   Scattered Clouds
4:53 PM 82.9 °F 83.3 °F 61.0 °F 47% 29.94 in 10.0 mi SSW 19.6 mph 31.1 mph N/A   Scattered Clouds
5:53 PM 84.0 °F 83.3 °F 57.0 °F 40% 29.94 in 10.0 mi SW 12.7 mph 27.6 mph N/A   Scattered Clouds
6:53 PM 82.9 °F 82.6 °F 57.9 °F 42% 29.94 in 10.0 mi SW 18.4 mph 29.9 mph N/A   Scattered Clouds
7:53 PM 81.0 °F 81.0 °F 57.0 °F 44% 29.96 in 10.0 mi SW 15.0 mph 28.8 mph N/A   Partly Cloudy
8:53 PM 78.1 °F - 57.9 °F 50% 29.96 in 10.0 mi SSW 9.2 mph - N/A   Clear
9:53 PM 75.9 °F - 59.0 °F 56% 29.96 in 10.0 mi South 6.9 mph - N/A   Clear
10:53 PM 75.0 °F - 60.1 °F 60% 29.96 in 10.0 mi South 10.4 mph - N/A   Scattered Clouds
11:53 PM 73.9 °F - 60.1 °F 62% 29.97 in 10.0 mi South 8.1 mph - N/A   Clear